timestamp,surface_pressure_avg,surface_temp_avg,battery_voltage,lat,long
2023-01-09 00:09:00+00:00,335.798,3.5,12.49,47.84626,-54.09684
2023-01-09 00:19:00+00:00,337.6479,3.42,12.49,47.84626,-54.09684
2023-01-09 00:29:00+00:00,339.5846,3.4,12.49,47.84626,-54.09684
2023-01-09 00:39:00+00:00,336.8130000000001,3.46,12.49,47.84626,-54.09684
2023-01-09 00:49:00+00:00,331.1564,3.55,12.49,47.84626,-54.09684
2023-01-09 00:59:00+00:00,332.4296,3.6,12.49,47.84626,-54.09684
2023-01-09 01:09:00+00:00,337.8663,3.6,12.49,47.84626,-54.09684
2023-01-09 01:19:00+00:00,332.2447,3.5,12.49,47.84626,-54.09684
2023-01-09 01:29:00+00:00,324.4414,3.3,12.49,47.84626,-54.09684
2023-01-09 01:39:00+00:00,327.6563,3.3,12.49,47.84626,-54.09684
2023-01-09 01:49:00+00:00,329.5863,3.3,12.49,47.84626,-54.09684
2023-01-09 01:59:00+00:00,318.858,3.28,12.49,47.84626,-54.09684
2023-01-09 02:09:00+00:00,311.5446,3.3,12.49,47.84626,-54.09684
2023-01-09 02:19:01+00:00,315.3214,3.3,12.49,47.84626,-54.09684
2023-01-09 02:29:01+00:00,313.9131,3.3,12.49,47.84626,-54.09684
2023-01-09 02:39:01+00:00,304.8113,3.3,12.49,47.84626,-54.09684
2023-01-09 02:49:01+00:00,305.8513,3.3,12.49,47.84626,-54.09684
2023-01-09 02:59:01+00:00,308.653,3.3,12.49,47.84626,-54.09684
2023-01-09 03:09:01+00:00,305.1381,3.1,12.49,47.84626,-54.09684
2023-01-09 03:19:00+00:00,301.7581,3.09,12.49,47.84626,-54.09684
2023-01-09 03:29:00+00:00,295.4363,3.1,12.49,47.84626,-54.09684
2023-01-09 03:39:00+00:00,290.9364,3.1,12.49,47.84626,-54.09684
2023-01-09 03:49:00+00:00,283.4297,3.1,12.49,47.84626,-54.09684
2023-01-09 03:59:00+00:00,277.0497,3.1,12.49,47.84626,-54.09684
2023-01-09 04:09:00+00:00,269.9798,3.1,12.49,47.84626,-54.09684
2023-01-09 04:19:00+00:00,264.2064,3.1,12.49,47.84626,-54.09684
2023-01-09 04:29:00+00:00,258.2464,3.11,12.49,47.84626,-54.09684
2023-01-09 04:39:00+00:00,250.1681,3.1,12.49,47.84626,-54.09684
2023-01-09 04:49:00+00:00,242.7747,3.1,12.49,47.84626,-54.09684
2023-01-09 04:59:00+00:00,237.2647,3.0,12.49,47.84626,-54.09684
2023-01-09 05:09:00+00:00,232.9547,2.9,12.49,47.84626,-54.09684
2023-01-09 05:19:00+00:00,225.4564,2.7,12.49,47.84626,-54.09684
2023-01-09 05:29:00+00:00,219.1814,2.6,12.49,47.84626,-54.09684
2023-01-09 05:39:00+00:00,216.1165,2.57,12.49,47.84626,-54.09684
2023-01-09 05:49:00+00:00,211.8698,2.5,12.49,47.84626,-54.09684
2023-01-09 05:59:00+00:00,206.4765,2.49,12.49,47.84626,-54.09684
2023-01-09 06:09:00+00:00,205.5797,2.47,12.49,47.84626,-54.09684
2023-01-09 06:19:00+00:00,206.3548,2.5,12.49,47.84626,-54.09684
2023-01-09 06:29:00+00:00,205.7998,2.63,12.49,47.84626,-54.09684
2023-01-09 06:39:00+00:00,203.0565,2.74,12.49,47.84626,-54.09684
2023-01-09 06:49:00+00:00,204.4131,2.98,12.49,47.84626,-54.09684
2023-01-09 06:59:00+00:00,207.0865,3.08,12.49,47.84626,-54.09684
2023-01-09 07:09:00+00:00,207.0515,3.07,12.49,47.84626,-54.09684
2023-01-09 07:19:00+00:00,210.2981,3.3,12.49,47.84626,-54.09684
2023-01-09 07:29:00+00:00,215.4714,3.49,12.49,47.84626,-54.09684
2023-01-09 07:39:00+00:00,217.1298,3.5,12.49,47.84626,-54.09684
2023-01-09 07:49:00+00:00,220.1564,3.5,12.49,47.84626,-54.09684
2023-01-09 07:59:00+00:00,223.7648,3.6,12.49,47.84626,-54.09684
2023-01-09 08:09:00+00:00,225.1864,3.6,12.49,47.84626,-54.09684
2023-01-09 08:19:00+00:00,228.0664,3.6,12.49,47.84626,-54.09684
2023-01-09 08:29:00+00:00,237.7498,3.6,12.49,47.84626,-54.09684
2023-01-09 08:39:00+00:00,242.8214,3.6,12.49,47.84626,-54.09684
2023-01-09 08:49:00+00:00,244.8381,3.6,12.49,47.84626,-54.09684
2023-01-09 08:59:00+00:00,248.8298,3.6,12.49,47.84626,-54.09684
2023-01-09 09:09:00+00:00,256.2347,3.6,12.49,47.84626,-54.09684
2023-01-09 09:19:01+00:00,256.6914,3.59,12.41,47.84626,-54.09684
2023-01-09 09:29:01+00:00,258.0781,3.5,12.41,47.84626,-54.09684
2023-01-09 09:39:01+00:00,262.7997,3.5,12.41,47.84626,-54.09684
2023-01-09 09:49:01+00:00,265.8364,3.5,12.41,47.84626,-54.09684
2023-01-09 09:59:01+00:00,266.4514,3.5,12.41,47.84626,-54.09684
2023-01-09 10:09:01+00:00,276.9614,3.5,12.41,47.84626,-54.09684
2023-01-09 10:19:00+00:00,289.5081,3.5,12.41,47.84626,-54.09684
2023-01-09 10:29:00+00:00,295.3064,3.59,12.41,47.84626,-54.09684
2023-01-09 10:39:00+00:00,294.0031,3.5,12.41,47.84626,-54.09684
2023-01-09 10:49:00+00:00,302.638,3.5,12.41,47.84626,-54.09684
2023-01-09 10:59:00+00:00,311.4581,3.59,12.41,47.84626,-54.09684
2023-01-09 11:09:00+00:00,317.2913,3.69,12.41,47.84626,-54.09684
2023-01-09 11:19:00+00:00,323.3163,3.7,12.41,47.84626,-54.09684
2023-01-09 11:29:00+00:00,337.0546,3.8,12.41,47.84626,-54.09684
2023-01-09 11:39:00+00:00,347.3613,3.84,12.41,47.84626,-54.09684
2023-01-09 11:49:00+00:00,350.1345,3.88,12.41,47.84626,-54.09684
2023-01-09 11:59:00+00:00,357.4046,3.81,12.41,47.84626,-54.09684
2023-01-09 12:09:00+00:00,366.3479,3.8,12.41,47.84626,-54.09684
2023-01-09 12:19:00+00:00,367.3646,3.8,12.49,47.84626,-54.09684
2023-01-09 12:29:00+00:00,367.2196,3.8,12.49,47.84626,-54.09684
2023-01-09 12:39:00+00:00,369.4097,3.8,12.49,47.84626,-54.09684
2023-01-09 12:49:00+00:00,376.3195,3.8,12.49,47.84626,-54.09684
2023-01-09 12:59:00+00:00,377.0379,3.8,12.49,47.84626,-54.09684
2023-01-09 13:09:00+00:00,375.9178,3.8,12.49,47.84626,-54.09684
2023-01-09 13:19:00+00:00,382.4012,3.78,12.41,47.84626,-54.09684
2023-01-09 13:29:00+00:00,383.7662,3.79,12.41,47.84626,-54.09684
2023-01-09 13:39:00+00:00,377.7812,3.7,12.41,47.84626,-54.09684
2023-01-09 13:49:00+00:00,375.9012,3.7,12.41,47.84626,-54.09684
2023-01-09 13:59:00+00:00,379.2797,3.7,12.41,47.84626,-54.09684
2023-01-09 14:09:00+00:00,380.7747,3.71,12.41,47.84626,-54.09684
2023-01-09 14:19:00+00:00,374.7297,3.76,12.49,47.84626,-54.09684
2023-01-09 14:29:00+00:00,374.8729,3.79,12.49,47.84626,-54.09684
2023-01-09 14:39:00+00:00,375.4347,3.8,12.49,47.84626,-54.09684
2023-01-09 14:49:00+00:00,368.4062,3.8,12.49,47.84626,-54.09684
2023-01-09 14:59:00+00:00,367.233,3.88,12.49,47.84626,-54.09684
2023-01-09 15:09:00+00:00,366.8713,3.97,12.49,47.84626,-54.09684
2023-01-09 15:19:01+00:00,363.1713,4.0,12.57,47.84626,-54.09684
2023-01-09 15:29:01+00:00,358.653,4.0,12.57,47.84626,-54.09684
2023-01-09 15:39:01+00:00,355.4313,4.0,12.57,47.84626,-54.09684
2023-01-09 15:49:01+00:00,348.7913,4.0,12.57,47.84626,-54.09684
2023-01-09 15:59:01+00:00,334.3713,4.0,12.57,47.84626,-54.09684
2023-01-09 16:09:01+00:00,325.798,4.02,12.57,47.84626,-54.09684
2023-01-09 16:19:00+00:00,319.363,4.04,12.57,47.84626,-54.09684
2023-01-09 16:29:00+00:00,311.1497,4.05,12.57,47.84626,-54.09684
2023-01-09 16:39:00+00:00,301.6031,4.06,12.57,47.84626,-54.09684
2023-01-09 16:49:00+00:00,295.1847,4.06,12.57,47.84626,-54.09684
2023-01-09 16:59:00+00:00,285.5814,4.06,12.57,47.84626,-54.09684
2023-01-09 17:09:00+00:00,271.2148,4.07,12.57,47.84626,-54.09684
2023-01-09 17:19:00+00:00,259.6181,4.07,12.57,47.84626,-54.09684
2023-01-09 17:29:00+00:00,253.4881,4.04,12.57,47.84626,-54.09684
2023-01-09 17:39:00+00:00,245.5964,4.08,12.57,47.84626,-54.09684
2023-01-09 17:49:00+00:00,235.9064,4.1,12.57,47.84626,-54.09684
2023-01-09 17:59:00+00:00,233.1648,4.1,12.57,47.84626,-54.09684
2023-01-09 18:09:00+00:00,232.2314,4.09,12.57,47.84626,-54.09684
2023-01-09 18:19:00+00:00,223.1465,4.1,12.49,47.84626,-54.09684
2023-01-09 18:29:00+00:00,214.4131,4.1,12.49,47.84626,-54.09684
2023-01-09 18:39:00+00:00,214.9847,4.09,12.49,47.84626,-54.09684
2023-01-09 18:49:00+00:00,215.4331,4.06,12.49,47.84626,-54.09684
2023-01-09 18:59:00+00:00,208.0815,4.08,12.49,47.84626,-54.09684
2023-01-09 19:09:00+00:00,205.1931,4.07,12.49,47.84626,-54.09684
2023-01-09 19:19:01+00:00,209.6581,4.0,12.65,47.84626,-54.09684
2023-01-09 19:29:01+00:00,209.7047,4.02,12.65,47.84626,-54.09684
2023-01-09 19:39:01+00:00,207.5365,4.03,12.65,47.84626,-54.09684
2023-01-09 19:49:01+00:00,212.6082,4.0,12.65,47.84626,-54.09684
2023-01-09 19:59:01+00:00,218.1765,4.0,12.65,47.84626,-54.09684
2023-01-09 20:09:01+00:00,215.1148,4.0,12.65,47.84626,-54.09684
2023-01-09 20:19:00+00:00,213.0431,4.0,12.49,47.84626,-54.09684
2023-01-09 20:29:00+00:00,217.2914,4.0,12.49,47.84626,-54.09684
2023-01-09 20:39:00+00:00,219.5981,4.0,12.49,47.84626,-54.09684
2023-01-09 20:49:00+00:00,217.2231,4.0,12.49,47.84626,-54.09684
2023-01-09 20:59:00+00:00,216.8014,3.9,12.49,47.84626,-54.09684
2023-01-09 21:09:00+00:00,223.7731,3.8,12.49,47.84626,-54.09684
2023-01-09 21:19:00+00:00,232.5598,3.8,12.49,47.84626,-54.09684
2023-01-09 21:29:00+00:00,236.3481,3.8,12.49,47.84626,-54.09684
2023-01-09 21:39:00+00:00,242.7997,3.8,12.49,47.84626,-54.09684
2023-01-09 21:49:00+00:00,247.4614,3.8,12.49,47.84626,-54.09684
2023-01-09 21:59:00+00:00,246.0664,3.79,12.49,47.84626,-54.09684
2023-01-09 22:09:00+00:00,249.6414,3.79,12.49,47.84626,-54.09684
2023-01-09 22:19:00+00:00,260.9781,3.79,12.49,47.84626,-54.09684
2023-01-09 22:29:00+00:00,264.373,3.75,12.49,47.84626,-54.09684
2023-01-09 22:39:00+00:00,266.3231,3.72,12.49,47.84626,-54.09684
2023-01-09 22:49:00+00:00,274.2414,3.7,12.49,47.84626,-54.09684
2023-01-09 22:59:00+00:00,279.5114,3.7,12.49,47.84626,-54.09684
2023-01-09 23:09:00+00:00,278.5247,3.7,12.49,47.84626,-54.09684
2023-01-09 23:19:00+00:00,287.8698,3.61,12.41,47.84626,-54.09684
2023-01-09 23:29:00+00:00,297.7247,3.6,12.41,47.84626,-54.09684
2023-01-09 23:39:00+00:00,298.6463,3.5,12.41,47.84626,-54.09684
2023-01-09 23:49:00+00:00,297.578,3.5,12.41,47.84626,-54.09684
2023-01-09 23:59:00+00:00,307.83299999999997,3.47,12.41,47.84626,-54.09684
